Home   Weather   Sousse   Past weeks
Flag for Tunisia

Past Weather in Sousse, Tunisia — Yesterday and Last 2 Weeks

Now
55 °F

Passing clouds.


Feels Like: 51 °F
Forecast: 62 / 55 °F
Wind: 17 mph from Northwest

Location: Habib Bourguiba

Current Time: Mar 20, 2019 at 9:04:04 am

Latest Report: Mar 20, 2019 at 8:00 am


Visibility: N/A

Pressure: 30.01 "Hg

Humidity: 82%

Dew Point: 50 °F

Location of SousseLocation

Past Weather in Sousse — Graph

°F

Sousse Temperature Yesterday

Maximum temperature yesterday: 61 °F (at 12:00 pm)
Minimum temperature yesterday: 55 °F (at 12:00 am)
Average temperature yesterday: 58 °F

High & Low Weather Summary for the Past Weeks

 TemperatureHumidityPressure
High79 °F (Mar 7, 1:30 pm)100% (Mar 6, 7:30 am)30.36 "Hg (Mar 6, 7:30 am)
Low45 °F (Mar 13, 6:30 am)19% (Mar 7, 1:00 pm)29.92 "Hg (Mar 18, 3:00 am)
Average60 °F64%30.12 "Hg
* Reported Mar 5 7:00 am — Mar 20 7:30 am, Sousse. Weather by CustomWeather, © 2019

Note: Actual official high and low records may vary slightly from our data, if they occured in-between our weather recording intervals... More about our weather records

Advertising

Sousse Weather History for the Previous 24 Hours

Scroll right to see more
 ConditionsComfort  
Time TempWeatherWind HumidityBarometerVisibility
7:30 am
Wed, Mar 20
55 °FScattered clouds.17 mph82%30.01 "HgN/A
7:00 am55 °FScattered clouds.18 mph77%30.01 "HgN/A
6:30 am55 °FPartly sunny.17 mph77%30.01 "HgN/A
6:00 am55 °FPassing clouds.18 mph77%30.01 "HgN/A
5:30 am55 °FPassing clouds.17 mph77%30.01 "HgN/A
5:00 am55 °FPassing clouds.16 mph77%30.01 "HgN/A
4:30 am55 °FClear.17 mph77%29.98 "Hg10 mi
4:00 am55 °FPassing clouds.17 mph72%30.01 "HgN/A
3:30 am55 °FClear.16 mph72%30.01 "Hg10 mi
3:00 am55 °FCool.16 mph72%30.01 "HgN/A
2:30 am55 °FClear.15 mph72%30.01 "Hg10 mi
1:30 am55 °FClear.16 mph67%30.04 "Hg10 mi
1:00 am55 °FClear.16 mph72%30.04 "Hg10 mi
12:30 am55 °FClear.17 mph67%30.04 "Hg10 mi
12:00 am55 °FClear.18 mph67%30.07 "Hg10 mi
11:00 pm
Tue, Mar 19
57 °FClear.20 mph59%30.07 "Hg10 mi
10:30 pm57 °FClear.18 mph63%30.07 "Hg10 mi
9:30 pm57 °FPassing clouds.21 mph59%30.07 "HgN/A
9:00 pm57 °FClear.20 mph59%30.04 "Hg10 mi
8:30 pm57 °FClear.23 mph59%30.04 "Hg10 mi
8:00 pm57 °FClear.22 mph59%30.04 "Hg10 mi
7:30 pm57 °FPassing clouds.20 mph59%30.04 "HgN/A
7:00 pm57 °FClear.22 mph63%30.04 "Hg5 mi
6:30 pm59 °FClear.21 mph59%30.01 "Hg5 mi
6:00 pm59 °FPassing clouds.20 mph59%30.01 "Hg5 mi
5:30 pm59 °FClear.18 mph55%30.01 "Hg5 mi
5:00 pm59 °FClear.18 mph59%29.98 "Hg5 mi
4:30 pm61 °FClear.20 mph52%29.98 "Hg5 mi
4:00 pm61 °FClear.21 mph52%29.98 "Hg5 mi
3:30 pm61 °FClear.21 mph55%29.98 "Hg5 mi
3:00 pm61 °FClear.22 mph52%29.98 "Hg5 mi
2:30 pm61 °FClear.20 mph52%29.98 "Hg5 mi
2:00 pm61 °FClear.21 mph59%30.01 "Hg5 mi
1:30 pm61 °FSunny.21 mph55%30.01 "Hg10 mi
1:00 pm61 °FSunny.18 mph55%30.04 "Hg10 mi
12:30 pm61 °FSunny.20 mph52%30.04 "Hg10 mi
12:00 pm61 °FPassing clouds.20 mph55%30.04 "HgN/A
11:30 am59 °FSunny.21 mph55%30.04 "Hg10 mi
11:00 am59 °FSunny.21 mph59%30.04 "Hg10 mi
10:30 am57 °FSunny.22 mph63%30.04 "Hg10 mi
10:00 am59 °FPassing clouds.20 mph59%30.04 "HgN/A
9:30 am57 °FClear.20 mph59%30.04 "Hg5 mi
9:00 am57 °FClear.20 mph63%30.04 "Hg5 mi
Weather by CustomWeather, © 2019

See weather overview